Regional Weather Roundup
Issued by NWS

Home | Current Version | Previous Version | Graphics & Text | Print | Product List | Glossary On
Versions: 1 2 3 4 5 6 7 8 9 10 11 12 13 14 15 16 17 18 19 20 21 22 23 24 25 26 27 28 29 30 31 32 33 34 35 36 37 38 39 40 41 42 43 44 45 46 47 48 49 50
581
ASUS44 KLIX 210601
RWRLA
LOUISIANA WEATHER ROUNDUP
NATIONAL WEATHER SERVICE NEW ORLEANS LA
100 AM CDT THU AUG 21 2014

NOTE: "FAIR" INDICATES FEW OR NO CLOUDS BELOW 12,000 FEET WITH NO
      SIGNIFICANT WEATHER AND/OR OBSTRUCTIONS TO VISIBILITY.
      SKY/WX - SKY CONDITION AND SIGNIFICANT WEATHER.
      TMP - AIR TEMPERATURE.    DP   - DEWPOINT TEMPERATURE.
      RH  - RELATIVE HUMIDITY.  PRES - PRESSURE.
      HX  - HEAT INDEX.         WCI  - WIND CHILL INDEX.

*  THESE STATIONS ARE NOT NWS OR FAA STATIONS AND ARE NOT UNDER
   NWS QUALITY CONTROL.

LAZ040-048-061>063-065-066-069-210700-
SOUTHEAST LOUISIANA

CITY           SKY/WX    TMP DP  RH WIND       PRES   REMARKS
N.O. AUDUBON   NOT AVBL
N.O. INTL ARPT FAIR      78  72  81 CALM      30.08F
6HR MIN TEMP:  78; 6HR MAX TEMP:  82;

N.O. LAKEFRONT FAIR      80  72  76 S3        30.09S
6HR MIN TEMP:  79; 6HR MAX TEMP:  85;

N.O. DOWNTOWN* FAIR      82  70  65 CALM      30.09F
6HR MIN TEMP:  81; 6HR MAX TEMP:  86;

SLIDELL        FAIR      76  73  91 CALM      30.08S
6HR MIN TEMP:  76; 6HR MAX TEMP:  87;

BATON ROUGE    FAIR      75  73  93 E3        30.08S
6HR MIN TEMP:  75; 6HR MAX TEMP:  80;

BOOTHVILLE     FAIR      84  76  76 S5        30.09F
6HR MIN TEMP:  83; 6HR MAX TEMP:  86;

BELLE CHASSE   FAIR      76  72  87 CALM      30.08F
6HR MIN TEMP:  76; 6HR MAX TEMP:  84;

BOGALUSA*      FAIR      77  73  87 CALM      30.10S
6HR MIN TEMP:  76; 6HR MAX TEMP:  86;

GALLIANO*      NOT AVBL
NEW ROADS*     FAIR      76  74  92 SE3       30.08S
6HR MIN TEMP:  74; 6HR MAX TEMP:  78;

GONZALES*      FAIR      74  74 100 CALM      30.07S
6HR MIN TEMP:  74; 6HR MAX TEMP:  76;

HAMMOND*       NOT AVBL
HOUMA*         FAIR      75  72  88 CALM      30.07F
6HR MIN TEMP:  75; 6HR MAX TEMP:  76;

PORT FOURCHON* CLEAR     86  77  74 VRB5      30.10F HX  97

$$

LAZ041-044-053-054-210700-
SOUTHWEST LOUISIANA

CITY           SKY/WX    TMP DP  RH WIND       PRES   REMARKS
LAKE CHARLES   FAIR      79  76  90 E5        30.05R
6HR MIN TEMP:  78; 6HR MAX TEMP:  85;

LAFAYETTE      FAIR      77  75  93 SW5       30.07F
6HR MIN TEMP:  77; 6HR MAX TEMP:  79;

PATTERSON      FAIR     N/A N/A N/A MISG        N/A
SALT POINT       N/A     83  78  85 CALM      30.06S
6HR MIN TEMP:  80; 6HR MAX TEMP:  86;

NEW IBERIA     FAIR      77  74  90 SW5       30.08S
6HR MIN TEMP:  77; 6HR MAX TEMP:  83;

CHENAULT AIRPK FAIR      78  74  90 E3        30.07S
6HR MIN TEMP:  77; 6HR MAX TEMP:  85;


$$

LAZ027-028-210700-
CENTRAL LOUISIANA

CITY           SKY/WX    TMP DP  RH WIND       PRES   REMARKS
FORT POLK      FAIR      75  72  90 SE8       30.07R
6HR MIN TEMP:  74; 6HR MAX TEMP:  75; 6HR PCP: TRACE;

ALEXANDRIA INT FAIR      76  72  87 S5        30.05F
6HR MIN TEMP:  76; 6HR MAX TEMP:  80;

ALEXANDRIA     FAIR      74  72  93 CALM      30.07F
6HR MIN TEMP:  74; 6HR MAX TEMP:  81;


$$

LAZ001-002-210700-
NORTHWEST LOUISIANA

CITY           SKY/WX    TMP DP  RH WIND       PRES   REMARKS
SHREVEPORT     FAIR      75  70  84 SE6       30.04R
6HR MIN TEMP:  75; 6HR MAX TEMP:  92;

BARKSDALE AFB  FAIR      73  70  90 SE7       30.04S
6HR MIN TEMP:  72; 6HR MAX TEMP:  90;

DTN SHREVEPORT FAIR      76  70  82 SE8       30.04S
6HR MIN TEMP:  76; 6HR MAX TEMP:  91;


$$

LAZ014-016-210700-
NORTHEAST LOUISIANA

CITY           SKY/WX    TMP DP  RH WIND       PRES   REMARKS
MONROE         FAIR      75  71  87 CALM      30.08R
6HR MIN TEMP:  75; 6HR MAX TEMP:  89;

TALLULAH       FAIR      75  72  90 SW3       30.07R
6HR MIN TEMP:  74; 6HR MAX TEMP:  87;


$$




USA.gov is the U.S. government's official web portal to all federal, state and local government web resources and services.